Location: Newark
(46.8500°N, 5.1667°E)
Time: 06:06:35
(UTC+00:00)

ISS - Pass Details

Date: 20 September 2019
Orbit: 411 x 421 km, 51.6° (Epoch: 16 October)

Event Time Altitude Azimuth Distance (km) Brightness Sun altitude
Rises 19:22:02 0° 230° (SW) 2,333 0.4 -17.5°
Reaches altitude 10° 19:24:08 10° 226° (SW) 1,474 -0.7 -17.9°
Enters shadow 19:27:08 52° 168° (SSE) 515 -3.6 -18.4°
